WB9FQS Weather Reports


time (UTC)temp
F
wind
direction
speed
knots
gust
knots
rain 1hr
in
rain 24hr
in
rain mn
in
humidity
%
barometer
mb
20260503184534 51 106 0.9 7.0 0.00 0.00 0.00 81 1012.3
20260503183025 50 149 0.9 11.3 0.00 0.00 0.00 81 1013.0
20260503181521 50 155 0.0 4.3 0.00 0.00 0.00 81 1013.4
20260503180021 50 139 0.9 4.3 0.00 0.00 0.00 79 1013.7
20260503174524 52 65 0.9 3.5 0.00 0.00 0.00 73 1014.2
20260503173015 55 49 0.0 8.7 0.00 0.00 0.00 65 1014.1
20260503171515 55 110 1.7 6.1 0.00 0.00 0.00 63 1013.9
20260503081505 42 157 0.0 0.0 0.00 0.00 0.00 71 1015.7
20260503071504 42 158 0.0 0.9 0.00 0.00 0.00 72 1016.0
20260503054600 42 140 0.0 0.9 0.00 0.00 0.00 72 1016.8
20260503053050 43 140 0.0 0.0 0.00 0.00 0.00 72 1016.8
20260503051549 43 139 0.0 0.0 0.00 0.00 0.00 73 1016.9
20260503050049 43 139 0.0 0.0 0.00 0.00 0.00 72 1017.0
20260503044552 43 138 0.0 0.9 0.00 0.00 0.00 72 1017.0
20260503043049 43 147 0.0 0.0 0.00 0.00 0.00 71 1017.1
20260503041546 42 146 0.0 0.0 0.00 0.00 0.00 71 1017.2
20260503040044 42 148 0.0 0.0 0.00 0.00 0.00 71 1017.3
20260503034547 42 148 0.0 0.0 0.00 0.00 0.00 69 1017.3
20260503033042 43 148 0.0 0.0 0.00 0.00 0.00 68 1017.3
20260503031544 43 148 0.0 0.0 0.00 0.00 0.00 68 1017.5
20260503030041 44 150 0.0 0.0 0.00 0.00 0.00 69 1017.6
20260503024542 44 144 0.0 0.0 0.00 0.00 0.00 63 1017.6
20260503023042 45 144 0.0 0.0 0.00 0.00 0.00 60 1017.6
20260503021545 45 144 0.0 0.0 0.00 0.00 0.00 58 1017.5
20260503020043 46 143 0.0 0.0 0.00 0.00 0.00 58 1017.4
20260503014538 46 144 0.0 0.0 0.00 0.00 0.00 59 1017.4
20260503013039 47 143 0.0 0.0 0.00 0.00 0.00 56 1017.3
20260503011547 48 144 0.0 0.0 0.00 0.00 0.00 56 1017.2
20260503010039 48 144 0.0 0.0 0.00 0.00 0.00 53 1017.3
20260503004536 49 144 0.0 0.0 0.00 0.00 0.00 52 1017.3
20260503003034 50 144 0.0 0.0 0.00 0.00 0.00 49 1017.4
20260503001534 50 144 0.0 0.0 0.00 0.00 0.00 49 1017.4
20260503000048 52 144 0.0 0.9 0.00 0.00 0.00 50 1017.4
20260502234533 53 175 0.0 0.0 0.00 0.00 0.00 47 1017.5
20260502233031 52 175 0.0 0.9 0.00 0.00 0.00 44 1017.6
20260502231534 52 177 0.0 3.5 0.00 0.00 0.00 46 1017.7
20260502230029 52 158 0.0 6.1 0.00 0.00 0.00 48 1017.7
20260502224528 52 177 0.9 4.3 0.00 0.00 0.00 43 1017.8
20260502223030 53 166 0.0 2.6 0.00 0.00 0.00 45 1017.9
20260502221524 52 153 0.0 2.6 0.00 0.00 0.00 46 1018.0
20260502220024 52 150 0.0 4.3 0.00 0.00 0.00 45 1018.2
20260502214523 53 129 0.0 3.5 0.00 0.00 0.00 43 1018.2
20260502213022 52 146 0.9 3.5 0.00 0.00 0.00 45 1018.2
20260502211531 53 123 0.0 2.6 0.00 0.00 0.00 44 1018.3
20260502210020 52 70 0.0 2.6 0.00 0.00 0.00 45 1018.5
20260502204521 52 175 0.0 3.5 0.00 0.00 0.00 44 1018.5
20260502203016 52 100 0.0 4.3 0.00 0.00 0.00 47 1018.7
20260502201512 51 127 0.0 2.6 0.00 0.00 0.00 46 1018.9
20260502200010 50 78 0.0 4.3 0.00 0.00 0.00 46 1019.1
20260502194507 50 178 0.9 5.2 0.00 0.00 0.00 49 1019.4
20260502193005 50 106 0.0 3.5 0.00 0.00 0.00 48 1019.6
20260502191503 49 343 0.0 4.3 0.00 0.00 0.00 46 1019.8
20260502190003 49 177 0.0 7.8 0.00 0.00 0.00 47 1020.0